Meriden, CT

3:22 AM EDT on September 25, 2017 (GMT -0400)
Meriden Markham Municipal

Weather History for KMMK - December, 2013

Change the Weather History Date:

Sunday, December 1, 2013

  Actual Average (KOXC) Record (KOXC)
Temperature  
Mean Temperature 36 °F -  
Max Temperature 41 °F 42 °F 66 °F (2001)
Min Temperature 30 °F 27 °F 17 °F (1999)
Degree Days  
Heating Degree Days 30    
Moisture  
Dew Point 29 °F    
Average Humidity 83    
Maximum Humidity 96    
Minimum Humidity 61    
Precipitation  
Precipitation 0.05 in - - ()
Sea Level Pressure  
Sea Level Pressure 30.18 in    
Wind  
Wind Speed 2 mph (North)    
Max Wind Speed 6 mph    
Max Gust Speed -    
Visibility 7 miles    
Events Rain    
Averages and records for this station are not official NWS values.
T = Trace of Precipitation, MM = Missing Value Source: NWS Daily Summary

Daily Weather History Graph

Daily Weather History Graph

Search for Another Location

Airport or City:

Trip Planner

Search our weather history database for the weather conditions in past years. The results will help you decide how hot, cold, wet, or windy it might be!

Date:

Astronomy

Dec. 01, 2013 Rise Set
Actual Time 6:58 AM EST 4:22 PM EST
Civil Twilight 6:27 AM EST 4:53 PM EST
Nautical Twilight 5:53 AM EST 5:27 PM EST
Astronomical Twilight 5:19 AM EST 6:00 PM EST
Moon 5:12 AM EST (12/1) 3:30 PM EST (12/1)
Length of Visible Light 10h 25m
Length of Day
9h 23m
Waning Crescent, 2% of the Moon is Illuminated
Dec 1
Waning Crescent
Dec 2
New
Dec 9
First Quarter
Dec 17
Full
Dec 25
Last Quarter

Hourly Weather History & Observations

Time (EST) Temp. Windchill Dew Point Humidity Pressure Visibility Wind Dir Wind Speed Gust Speed Precip Events Conditions
12:39 AM 30.9 °F - 19.0 °F 61% 30.38 in 10.0 mi Calm Calm - N/A   Overcast
12:53 AM 30.9 °F - 19.9 °F 64% 30.38 in 10.0 mi Calm Calm - N/A   Overcast
1:53 AM 32.0 °F - 19.9 °F 61% 30.37 in 10.0 mi Calm Calm - N/A   Overcast
2:53 AM 32.0 °F - 21.9 °F 66% 30.34 in 10.0 mi Calm Calm - N/A   Overcast
3:53 AM 32.0 °F 26.4 °F 21.9 °F 66% 30.31 in 10.0 mi NW 5.8 mph - 0.00 in   Overcast
4:53 AM 32.0 °F 26.4 °F 24.1 °F 73% 30.28 in 10.0 mi NNW 5.8 mph - 0.00 in   Overcast
5:08 AM 32.0 °F 27.5 °F 23.0 °F 69% 30.27 in 10.0 mi NNW 4.6 mph - N/A   Overcast
5:30 AM 30.9 °F 25.2 °F 24.1 °F 76% 30.27 in 8.0 mi NW 5.8 mph - 0.00 in   Overcast
5:53 AM 30.9 °F - 27.0 °F 85% 30.27 in 4.0 mi Calm Calm - 0.01 in   Overcast
6:53 AM 32.0 °F 26.4 °F 27.0 °F 82% 30.27 in 4.0 mi North 5.8 mph - 0.02 in   Overcast
7:01 AM 32.0 °F 26.4 °F 27.0 °F 82% 30.26 in 4.0 mi North 5.8 mph - 0.00 in   Overcast
7:24 AM 32.0 °F 27.5 °F 28.0 °F 85% 30.26 in 4.0 mi North 4.6 mph - 0.01 in Rain Light Freezing Rain
7:43 AM 32.0 °F - 28.0 °F 85% 30.26 in 10.0 mi Calm Calm - 0.01 in   Overcast
7:53 AM 32.0 °F - 28.0 °F 85% 30.26 in 10.0 mi Calm Calm - 0.01 in   Overcast
8:19 AM 32.0 °F - 28.0 °F 85% 30.25 in 3.0 mi Calm Calm - 0.00 in Rain Light Freezing Rain
8:27 AM 32.0 °F 27.5 °F 28.0 °F 85% 30.25 in 2.5 mi NNE 4.6 mph - 0.01 in Rain Light Freezing Rain
8:30 AM 32.0 °F 28.7 °F 28.0 °F 85% 30.25 in 3.0 mi NE 3.5 mph - 0.01 in Rain Light Freezing Rain
8:49 AM 32.0 °F - 28.4 °F 87% 30.24 in 8.0 mi Calm Calm - 0.01 in   Overcast
8:53 AM 32.0 °F 28.7 °F 28.9 °F 88% 30.25 in 9.0 mi NE 3.5 mph - 0.01 in   Overcast
9:53 AM 33.1 °F 30.0 °F 30.0 °F 89% 30.24 in 9.0 mi North 3.5 mph - N/A   Overcast
10:37 AM 35.1 °F 31.0 °F 30.9 °F 85% 30.21 in 8.0 mi NE 4.6 mph - N/A   Overcast
10:53 AM 35.1 °F 31.0 °F 30.9 °F 85% 30.21 in 8.0 mi NNE 4.6 mph - N/A   Overcast
11:53 AM 36.0 °F 31.1 °F 32.0 °F 86% 30.17 in 8.0 mi North 5.8 mph - N/A   Overcast
12:53 PM 39.9 °F - 34.0 °F 79% 30.13 in 9.0 mi Calm Calm - N/A   Overcast
1:44 PM 41.0 °F 39.0 °F 36.0 °F 82% 30.09 in 8.0 mi North 3.5 mph - N/A   Overcast
1:53 PM 41.0 °F 38.0 °F 36.0 °F 82% 30.10 in 8.0 mi North 4.6 mph - N/A   Overcast
2:04 PM 41.0 °F 38.0 °F 36.0 °F 82% 30.09 in 7.0 mi NNE 4.6 mph - N/A   Overcast
2:24 PM 39.9 °F 35.8 °F 36.0 °F 86% 30.08 in 7.0 mi North 5.8 mph - N/A   Overcast
2:53 PM 39.9 °F - 36.0 °F 86% 30.09 in 8.0 mi Calm Calm - N/A   Overcast
3:07 PM 39.9 °F 36.7 °F 36.0 °F 86% 30.08 in 7.0 mi NE 4.6 mph - N/A   Overcast
3:53 PM 39.9 °F - 34.0 °F 79% 30.08 in 7.0 mi Calm Calm - N/A   Overcast
4:53 PM 39.9 °F - 34.0 °F 79% 30.08 in 9.0 mi Calm Calm - N/A   Overcast
5:30 PM 37.0 °F - 34.0 °F 89% 30.07 in 8.0 mi Calm Calm - N/A   Overcast
5:53 PM 36.0 °F - 32.0 °F 86% 30.07 in 6.0 mi Calm Calm - N/A   Scattered Clouds
6:53 PM 32.0 °F - 30.9 °F 96% 30.07 in 4.0 mi Calm Calm - N/A   Clear
7:53 PM 33.1 °F - 32.0 °F 96% 30.07 in 3.0 mi Calm Calm - N/A   Overcast
8:53 PM 34.0 °F - 32.0 °F 92% 30.06 in 4.0 mi Calm Calm - N/A   Overcast
9:53 PM 34.0 °F - 32.0 °F 92% 30.05 in 3.0 mi Calm Calm - N/A   Overcast
10:43 PM 33.1 °F - 32.0 °F 96% 30.04 in 1.8 mi Calm Calm - N/A   Mostly Cloudy
10:53 PM 33.1 °F - 30.9 °F 92% 30.04 in 2.0 mi Calm Calm - N/A   Overcast
11:03 PM 33.1 °F - 30.9 °F 92% 30.03 in 4.0 mi Calm Calm - N/A   Overcast
11:49 PM 30.2 °F - 28.4 °F 93% 30.03 in 2.5 mi Calm Calm - N/A   Scattered Clouds
11:53 PM 30.9 °F - 28.9 °F 92% 30.04 in 2.0 mi Calm Calm - N/A   Scattered Clouds